Weather History for Harlingen, TX

Change the Weather History Date:

Tuesday, February 19, 2013

  Actual Average Record
Temperature  
Mean Temperature 65 °F 64 °F  
Max Temperature 75 °F 75 °F 95 °F (1986)
Min Temperature 55 °F 53 °F 34 °F (1944)
Degree Days  
Heating Degree Days 0 4  
Month to date heating degree days 36 89  
Since 1 July heating degree days 335 537  
Cooling Degree Days 0 3  
Month to date cooling degree days 88 48  
Year to date cooling degree days 158 97  
Growing Degree Days 14 (Base 50)    
Moisture  
Dew Point 59 °F    
Average Humidity 81    
Maximum Humidity 100    
Minimum Humidity 61    
Precipitation  
Precipitation 0.00 in 0.04 in 0.50 in (1921)
Month to date precipitation 0.20 1.08  
Year to date precipitation 2.74 2.14  
Sea Level Pressure  
Sea Level Pressure 30.06 in    
Wind  
Wind Speed 13 mph (East)    
Max Wind Speed 24 mph    
Max Gust Speed 29 mph    
Visibility 7 miles    
Events Fog    
T = Trace of Precipitation, MM = Missing Value Source: NWS Daily Summary

Daily Weather History Graph

Daily Weather History Graph

Search for Another Location

Airport:

Trip Planner

Search our weather history database for the weather conditions in past years. The results will help you decide how hot, cold, wet, or windy it might be!

Date:

Astronomy

Feb. 19, 2013 Rise Set
Actual Time 7:02 AM CST 6:26 PM CST
Civil Twilight 6:39 AM CST 6:49 PM CST
Nautical Twilight 6:12 AM CST 7:16 PM CST
Astronomical Twilight 5:45 AM CST 7:43 PM CST
Moon 1:15 PM CST (2/19) 2:18 AM CST (2/19)
Length of Visible Light 12h 10m
Length of Day
11h 23m
Waxing Gibbous, 67% of the Moon is Illuminated
Feb 19
Waxing Gibbous
Feb 25
Full
Mar 4
Last Quarter
Mar 11
New
Mar 19
First Quarter

Hourly Weather History & Observations

Time (CST) Temp. Dew Point Humidity Pressure Visibility Wind Dir Wind Speed Gust Speed Precip Events Conditions
12:52 AM 61.0 °F 57.9 °F 90% 29.99 in 9.0 mi ESE 3.5 mph - N/A   Clear
1:52 AM 59.0 °F 57.0 °F 93% 30.00 in 8.0 mi ESE 3.5 mph - N/A   Clear
2:52 AM 57.9 °F 55.9 °F 93% 30.00 in 6.0 mi Calm Calm - N/A   Clear
3:52 AM 57.9 °F 55.9 °F 93% 30.01 in 4.0 mi East 3.5 mph - N/A   Clear
4:01 AM 57.2 °F 55.4 °F 94% 30.01 in 2.5 mi East 3.5 mph - N/A   Clear
4:09 AM 57.2 °F 55.4 °F 94% 30.01 in 5.0 mi ENE 3.5 mph - N/A   Clear
4:52 AM 57.0 °F 55.9 °F 96% 30.03 in 3.0 mi Calm Calm - N/A   Clear
5:32 AM 55.4 °F 55.4 °F 100% 30.03 in 6.0 mi ESE 4.6 mph - N/A   Mostly Cloudy
5:52 AM 55.0 °F 54.0 °F 96% 30.04 in 4.0 mi East 4.6 mph - N/A   Overcast
5:58 AM 55.4 °F 53.6 °F 94% 30.04 in 1.5 mi East 5.8 mph - N/A   Overcast
6:07 AM 55.4 °F 55.4 °F 100% 30.04 in 0.5 mi East 5.8 mph - N/A Fog Fog
6:30 AM 55.4 °F 55.4 °F 100% 30.05 in 0.5 mi East 5.8 mph - N/A Fog Fog
6:43 AM 55.4 °F 55.4 °F 100% 30.05 in 0.2 mi East 5.8 mph - N/A Fog Fog
6:52 AM 55.9 °F 55.9 °F 100% 30.05 in 0.5 mi ENE 5.8 mph - N/A Fog Fog
7:03 AM 57.2 °F 55.4 °F 94% 30.06 in 0.2 mi East 5.8 mph - N/A Fog Fog
7:33 AM 57.2 °F 57.2 °F 100% 30.08 in 0.2 mi NNE 12.7 mph - N/A Fog Fog
7:40 AM 60.8 °F 60.8 °F 100% 30.08 in 1.0 mi NE 6.9 mph - N/A   Overcast
7:43 AM 60.8 °F 60.8 °F 100% 30.09 in 3.0 mi NNE 15.0 mph - N/A   Overcast
7:52 AM 62.1 °F 62.1 °F 100% 30.09 in 6.0 mi NNE 10.4 mph - N/A   Mostly Cloudy
7:59 AM 62.6 °F 62.6 °F 100% 30.10 in 7.0 mi NNE 10.4 mph - N/A   Overcast
8:52 AM 64.9 °F 62.1 °F 90% 30.12 in 10.0 mi NE 16.1 mph - N/A   Overcast
9:50 AM 69.8 °F 60.8 °F 73% 30.14 in 10.0 mi ENE 15.0 mph - N/A   Overcast
9:52 AM 69.1 °F 60.1 °F 73% 30.14 in 10.0 mi ENE 12.7 mph - N/A   Overcast
10:09 AM 71.6 °F 60.8 °F 69% 30.14 in 10.0 mi NE 15.0 mph - N/A   Mostly Cloudy
10:52 AM 72.0 °F 60.1 °F 66% 30.15 in 10.0 mi ENE 15.0 mph - N/A   Overcast
12:20 PM 73.4 °F 60.8 °F 65% 30.13 in 10.0 mi East 18.4 mph - N/A   Mostly Cloudy
12:52 PM 73.0 °F 60.1 °F 64% 30.12 in 10.0 mi East 17.3 mph - N/A   Overcast
1:29 PM 73.4 °F 59.0 °F 61% 30.10 in 10.0 mi ENE 20.7 mph - N/A   Scattered Clouds
1:52 PM 73.0 °F 60.1 °F 64% 30.09 in 10.0 mi East 20.7 mph - N/A   Scattered Clouds
2:52 PM 73.0 °F 59.0 °F 61% 30.06 in 10.0 mi East 21.9 mph 26.5 mph N/A   Scattered Clouds
3:52 PM 71.1 °F 59.0 °F 66% 30.05 in 10.0 mi East 21.9 mph 28.8 mph N/A   Partly Cloudy
4:52 PM 70.0 °F 59.0 °F 68% 30.04 in 10.0 mi East 20.7 mph 25.3 mph N/A   Clear
6:52 PM 66.9 °F 60.1 °F 79% 30.02 in 10.0 mi East 18.4 mph - N/A   Partly Cloudy
7:52 PM 66.0 °F 61.0 °F 84% 30.04 in 10.0 mi East 13.8 mph - N/A   Clear
8:28 PM 66.2 °F 60.8 °F 83% 30.04 in 10.0 mi East 13.8 mph - N/A   Mostly Cloudy
8:52 PM 66.2 °F 60.8 °F 83% 30.06 in 10.0 mi ESE 15.0 mph - N/A   Overcast
9:08 PM 66.2 °F 60.8 °F 83% 30.06 in 10.0 mi ESE 15.0 mph - N/A   Overcast
9:52 PM 66.9 °F 62.1 °F 84% 30.06 in 10.0 mi ESE 12.7 mph - N/A   Overcast
10:41 PM 66.2 °F 62.6 °F 88% 30.04 in 10.0 mi ESE 12.7 mph - N/A   Mostly Cloudy
10:52 PM 66.9 °F 62.1 °F 84% 30.03 in 10.0 mi ESE 15.0 mph - N/A   Mostly Cloudy
11:05 PM 66.2 °F 62.6 °F 88% 30.03 in 10.0 mi ESE 12.7 mph - N/A   Overcast
11:44 PM 66.2 °F 62.6 °F 88% 30.00 in 10.0 mi ESE 12.7 mph - N/A   Mostly Cloudy
11:52 PM 66.0 °F 62.1 °F 87% 30.00 in 10.0 mi ESE 12.7 mph - N/A   Mostly Cloudy